TUI24N ESSA-EDDH

Flight info

Callsign TUI24N
Flight time 1h 10m
Altitude 36000
Route NOSLI N850 ABAMA DCT GIMRU T503 MICOS N850 BOGMU BOGMU3P
Aircraft B738/M-SDE2E3FGHIRWXY/LB1

Departure

Time 2026-04-26 18:58
Airport Stockholm-Arlanda Airport (ESSA)

Arrival

Time 2026-04-26 20:08
Airport Hamburg Helmut Schmidt Airport (EDDH)
Time Latitude Longitude Altitude Speed Heading
2026-04-26 18:22 59.65149 17.92712 136 ft 0 kts 191°
2026-04-26 18:47 59.65166 17.92719 136 ft 4 kts 194°
2026-04-26 18:47 59.65192 17.92735 136 ft 4 kts 206°
2026-04-26 18:47 59.65213 17.92764 136 ft 4 kts 237°
2026-04-26 18:47 59.65218 17.92796 136 ft 0 kts 287°
2026-04-26 18:51 59.65222 17.92767 136 ft 6 kts 287°
2026-04-26 18:51 59.65241 17.92653 136 ft 11 kts 289°
2026-04-26 18:51 59.65270 17.92488 137 ft 13 kts 277°
2026-04-26 18:52 59.65209 17.92392 137 ft 13 kts 189°
2026-04-26 18:52 59.65147 17.92369 137 ft 14 kts 192°
2026-04-26 18:52 59.64992 17.92307 137 ft 20 kts 191°
2026-04-26 18:52 59.64876 17.92264 137 ft 16 kts 188°
2026-04-26 18:53 59.64758 17.92227 136 ft 19 kts 192°
2026-04-26 18:53 59.64623 17.92173 137 ft 21 kts 191°
2026-04-26 18:53 59.64473 17.92111 136 ft 18 kts 192°
2026-04-26 18:53 59.64383 17.92086 137 ft 12 kts 189°
2026-04-26 18:54 59.64329 17.91978 137 ft 13 kts 262°
2026-04-26 18:54 59.64262 17.91878 137 ft 15 kts 190°
2026-04-26 18:54 59.64152 17.91837 137 ft 18 kts 191°
2026-04-26 18:54 59.64025 17.91790 137 ft 20 kts 189°
2026-04-26 18:55 59.63892 17.91742 137 ft 19 kts 191°
2026-04-26 18:55 59.63782 17.91612 138 ft 19 kts 221°
2026-04-26 18:55 59.63731 17.91424 143 ft 16 kts 283°
2026-04-26 18:55 59.63775 17.91334 145 ft 8 kts 10°
2026-04-26 18:56 59.63778 17.91335 145 ft 0 kts
2026-04-26 18:57 59.63969 17.91402 144 ft 70 kts 10°
2026-04-26 18:57 59.64720 17.91667 145 ft 147 kts
2026-04-26 18:58 59.65815 17.92113 761 ft 166 kts
2026-04-26 18:58 59.66877 17.92478 2177 ft 143 kts
2026-04-26 18:58 59.67780 17.92709 3354 ft 120 kts 351°
2026-04-26 18:58 59.68515 17.92055 3912 ft 126 kts 327°
2026-04-26 18:59 59.69083 17.90490 4170 ft 163 kts 283°
2026-04-26 18:59 59.69058 17.88024 4509 ft 194 kts 273°
2026-04-26 18:59 59.68994 17.85279 4969 ft 205 kts 273°
2026-04-26 18:59 59.68922 17.82431 4969 ft 208 kts 272°
2026-04-26 19:00 59.68849 17.79544 5331 ft 210 kts 272°
2026-04-26 19:00 59.68667 17.76654 5971 ft 221 kts 261°
2026-04-26 19:00 59.68174 17.73661 6381 ft 239 kts 257°
2026-04-26 19:00 59.67634 17.70395 6772 ft 260 kts 257°
2026-04-26 19:01 59.66943 17.67028 7553 ft 272 kts 240°
2026-04-26 19:01 59.65519 17.64499 8456 ft 284 kts 212°
2026-04-26 19:01 59.63652 17.63103 9373 ft 290 kts 201°
2026-04-26 19:01 59.61699 17.61948 10171 ft 295 kts 200°
2026-04-26 19:02 59.59676 17.60772 10562 ft 315 kts 201°
2026-04-26 19:02 59.57493 17.59469 10758 ft 339 kts 201°
2026-04-26 19:02 59.55182 17.58068 11159 ft 354 kts 201°
2026-04-26 19:02 59.53608 17.57109 11546 ft 360 kts 201°
2026-04-26 19:03 59.50373 17.55089 12406 ft 369 kts 203°
2026-04-26 19:03 59.47930 17.53422 13055 ft 376 kts 205°
2026-04-26 19:03 59.45478 17.51703 13686 ft 383 kts 205°
2026-04-26 19:03 59.42940 17.49925 14287 ft 390 kts 205°
2026-04-26 19:04 59.40375 17.48143 14952 ft 393 kts 205°
2026-04-26 19:04 59.37781 17.46359 15644 ft 397 kts 205°
2026-04-26 19:04 59.35162 17.44569 16319 ft 401 kts 205°
2026-04-26 19:04 59.32507 17.42761 16985 ft 406 kts 205°
2026-04-26 19:05 59.27108 17.39100 18302 ft 415 kts 206°
2026-04-26 19:05 59.24405 17.37273 18872 ft 419 kts 206°
2026-04-26 19:05 59.21639 17.35408 19439 ft 422 kts 206°
2026-04-26 19:06 59.18852 17.33532 20017 ft 426 kts 206°
2026-04-26 19:06 59.16035 17.31641 20584 ft 429 kts 206°
2026-04-26 19:06 59.13200 17.29738 21144 ft 433 kts 206°
2026-04-26 19:06 59.10337 17.27817 21688 ft 437 kts 206°
2026-04-26 19:07 59.07487 17.25762 22214 ft 435 kts 213°
2026-04-26 19:07 59.05041 17.22522 22730 ft 421 kts 230°
2026-04-26 19:07 59.02821 17.18787 23249 ft 424 kts 230°
2026-04-26 19:07 59.00615 17.15108 23834 ft 425 kts 229°
2026-04-26 19:08 58.98353 17.11386 24280 ft 428 kts 229°
2026-04-26 19:08 58.96059 17.07653 24695 ft 432 kts 229°
2026-04-26 19:08 58.93744 17.03918 25107 ft 435 kts 229°
2026-04-26 19:08 58.91407 17.00171 25528 ft 438 kts 229°
2026-04-26 19:09 58.89048 16.96404 25944 ft 441 kts 229°
2026-04-26 19:09 58.86679 16.92630 26339 ft 443 kts 229°
2026-04-26 19:09 58.84289 16.88829 26748 ft 446 kts 229°
2026-04-26 19:09 58.81887 16.85016 27156 ft 449 kts 228°
2026-04-26 19:10 58.79466 16.81179 27535 ft 451 kts 228°
2026-04-26 19:10 58.77033 16.77328 27900 ft 453 kts 228°
2026-04-26 19:10 58.74589 16.73467 28293 ft 456 kts 228°
2026-04-26 19:10 58.72166 16.69647 28629 ft 459 kts 228°
2026-04-26 19:11 58.69688 16.65747 28961 ft 462 kts 228°
2026-04-26 19:11 58.67189 16.61826 29295 ft 464 kts 228°
2026-04-26 19:11 58.64681 16.57896 29623 ft 467 kts 228°
2026-04-26 19:11 58.62156 16.53945 29957 ft 469 kts 228°
2026-04-26 19:12 58.59624 16.49990 30260 ft 471 kts 228°
2026-04-26 19:12 58.57074 16.46013 30529 ft 472 kts 227°
2026-04-26 19:12 58.54534 16.42057 30953 ft 469 kts 227°
2026-04-26 19:12 58.52011 16.38138 31452 ft 465 kts 227°
2026-04-26 19:13 58.49507 16.34252 31862 ft 464 kts 227°
2026-04-26 19:13 58.47032 16.30415 32156 ft 465 kts 227°
2026-04-26 19:13 58.44520 16.26528 32471 ft 465 kts 227°
2026-04-26 19:13 58.42008 16.22651 32862 ft 464 kts 227°
2026-04-26 19:14 58.39505 16.18800 33262 ft 462 kts 227°
2026-04-26 19:14 58.37005 16.14959 33613 ft 461 kts 227°
2026-04-26 19:14 58.34506 16.11127 33944 ft 461 kts 227°
2026-04-26 19:14 58.33662 16.09834 34054 ft 461 kts 227°
2026-04-26 19:15 58.29514 16.03493 34546 ft 459 kts 226°
2026-04-26 19:15 58.27035 15.99715 34918 ft 456 kts 226°
2026-04-26 19:15 58.24563 15.95953 35196 ft 455 kts 226°
2026-04-26 19:15 58.22084 15.92183 35403 ft 456 kts 226°
2026-04-26 19:16 58.19638 15.88472 35601 ft 457 kts 226°
2026-04-26 19:16 58.17153 15.84707 35858 ft 457 kts 226°
2026-04-26 19:16 58.14676 15.80966 36115 ft 456 kts 226°
2026-04-26 19:17 58.09676 15.73427 36194 ft 462 kts 226°
2026-04-26 19:17 58.04649 15.65888 36170 ft 458 kts 226°
2026-04-26 19:18 57.99734 15.58540 36185 ft 452 kts 226°
2026-04-26 19:18 57.94732 15.51315 36200 ft 454 kts 224°
2026-04-26 19:19 57.89620 15.44297 36201 ft 455 kts 223°
2026-04-26 19:19 57.84498 15.37311 36175 ft 456 kts 223°
2026-04-26 19:20 57.79374 15.30310 36193 ft 456 kts 223°
2026-04-26 19:20 57.74291 15.23357 36200 ft 456 kts 223°
2026-04-26 19:21 57.69168 15.16368 36212 ft 456 kts 223°
2026-04-26 19:21 57.64043 15.09404 36215 ft 456 kts 223°
2026-04-26 19:22 57.58906 15.02450 36216 ft 456 kts 223°
2026-04-26 19:22 57.53773 14.95527 36211 ft 455 kts 223°
2026-04-26 19:23 57.48680 14.88683 36223 ft 455 kts 223°
2026-04-26 19:23 57.43549 14.81809 36219 ft 455 kts 222°
2026-04-26 19:24 57.38415 14.74958 36226 ft 454 kts 222°
2026-04-26 19:24 57.30716 14.64729 36229 ft 453 kts 222°
2026-04-26 19:25 57.27317 14.60231 36223 ft 453 kts 222°
2026-04-26 19:25 57.20496 14.51232 36220 ft 453 kts 222°
2026-04-26 19:26 57.15366 14.44492 36221 ft 452 kts 222°
2026-04-26 19:26 57.10241 14.37782 36225 ft 452 kts 222°
2026-04-26 19:27 57.05110 14.31090 36219 ft 452 kts 222°
2026-04-26 19:27 56.99983 14.24423 36229 ft 451 kts 221°
2026-04-26 19:28 56.94899 14.17837 36233 ft 451 kts 221°
2026-04-26 19:28 56.89782 14.11227 36244 ft 450 kts 221°
2026-04-26 19:29 56.84657 14.04633 36230 ft 450 kts 221°
2026-04-26 19:29 56.79534 13.98064 36242 ft 450 kts 221°
2026-04-26 19:30 56.74418 13.91525 36258 ft 449 kts 221°
2026-04-26 19:30 56.70155 13.86092 36254 ft 450 kts 221°
2026-04-26 19:31 56.64197 13.78525 36267 ft 450 kts 221°
2026-04-26 19:31 56.59066 13.72033 36261 ft 449 kts 221°
2026-04-26 19:32 56.53939 13.65569 36258 ft 449 kts 221°
2026-04-26 19:32 56.48808 13.59120 36266 ft 449 kts 221°
2026-04-26 19:33 56.43673 13.52688 36265 ft 449 kts 221°
2026-04-26 19:33 56.38573 13.46322 36262 ft 448 kts 221°
2026-04-26 19:34 56.33446 13.39944 36258 ft 448 kts 221°
2026-04-26 19:34 56.28320 13.33586 36269 ft 447 kts 221°
2026-04-26 19:35 56.23192 13.27248 36267 ft 447 kts 220°
2026-04-26 19:35 56.18060 13.20926 36263 ft 447 kts 220°
2026-04-26 19:36 56.14667 13.16757 36267 ft 447 kts 220°
2026-04-26 19:36 56.07841 13.08397 36264 ft 446 kts 220°
2026-04-26 19:37 56.02705 13.02133 36271 ft 447 kts 220°
2026-04-26 19:37 55.97572 12.95891 36268 ft 447 kts 220°
2026-04-26 19:38 55.92424 12.89652 36270 ft 447 kts 220°
2026-04-26 19:38 55.87271 12.83428 36262 ft 447 kts 220°
2026-04-26 19:39 55.82155 12.77268 36263 ft 447 kts 220°
2026-04-26 19:39 55.76993 12.71073 36265 ft 448 kts 220°
2026-04-26 19:40 55.71825 12.64891 36269 ft 448 kts 220°
2026-04-26 19:40 55.66655 12.58725 36268 ft 448 kts 220°
2026-04-26 19:41 55.61478 12.52573 36261 ft 448 kts 220°
2026-04-26 19:41 55.58050 12.48510 36261 ft 448 kts 220°
2026-04-26 19:42 55.51159 12.40368 36264 ft 448 kts 219°
2026-04-26 19:42 55.45970 12.34261 36264 ft 448 kts 219°
2026-04-26 19:43 55.40788 12.28181 36263 ft 448 kts 219°
2026-04-26 19:43 55.35599 12.22113 36263 ft 448 kts 219°
2026-04-26 19:44 55.30448 12.16107 36267 ft 448 kts 219°
2026-04-26 19:44 55.25257 12.10075 36267 ft 448 kts 219°
2026-04-26 19:45 55.20041 12.04029 35925 ft 452 kts 219°
2026-04-26 19:45 55.17425 12.01007 35663 ft 449 kts 219°
2026-04-26 19:45 55.14831 11.98018 35411 ft 444 kts 219°
2026-04-26 19:46 55.12249 11.95048 35166 ft 443 kts 219°
2026-04-26 19:46 55.09713 11.92130 34933 ft 443 kts 219°
2026-04-26 19:46 55.07154 11.89154 34682 ft 439 kts 220°
2026-04-26 19:46 55.04671 11.86094 34196 ft 435 kts 222°
2026-04-26 19:47 55.02224 11.82978 33464 ft 437 kts 222°
2026-04-26 19:47 55.01395 11.81912 33198 ft 438 kts 222°
2026-04-26 19:47 54.97294 11.76652 31917 ft 443 kts 222°
2026-04-26 19:47 54.94792 11.73472 31149 ft 446 kts 221°
2026-04-26 19:48 54.92274 11.70297 30420 ft 448 kts 221°
2026-04-26 19:48 54.89755 11.67144 29819 ft 445 kts 221°
2026-04-26 19:48 54.87253 11.64027 29317 ft 440 kts 221°
2026-04-26 19:48 54.85610 11.61988 28961 ft 437 kts 221°
2026-04-26 19:49 54.82328 11.57909 27729 ft 443 kts 221°
2026-04-26 19:49 54.79804 11.54770 26691 ft 450 kts 221°
2026-04-26 19:49 54.77253 11.51606 25907 ft 451 kts 221°
2026-04-26 19:49 54.74744 11.48515 25678 ft 429 kts 221°
2026-04-26 19:50 54.72365 11.45600 25322 ft 412 kts 221°
2026-04-26 19:50 54.70038 11.42741 24544 ft 412 kts 221°
2026-04-26 19:50 54.68491 11.40832 24099 ft 414 kts 221°
2026-04-26 19:50 54.66148 11.37942 23535 ft 412 kts 221°
2026-04-26 19:51 54.63838 11.35103 23331 ft 402 kts 221°
2026-04-26 19:51 54.61596 11.32360 23286 ft 388 kts 221°
2026-04-26 19:51 54.59414 11.29693 23277 ft 383 kts 221°
2026-04-26 19:51 54.57247 11.27039 22792 ft 383 kts 221°
2026-04-26 19:52 54.54335 11.23470 21779 ft 391 kts 221°
2026-04-26 19:52 54.52829 11.21625 21276 ft 395 kts 220°
2026-04-26 19:52 54.50587 11.18889 20708 ft 394 kts 220°
2026-04-26 19:52 54.48359 11.16179 20259 ft 390 kts 220°
2026-04-26 19:53 54.46165 11.13520 20005 ft 378 kts 220°
2026-04-26 19:53 54.44092 11.11021 19823 ft 361 kts 220°
2026-04-26 19:53 54.42048 11.08550 19310 ft 357 kts 220°
2026-04-26 19:53 54.40022 11.06097 18865 ft 357 kts 220°
2026-04-26 19:54 54.38003 11.03652 18487 ft 354 kts 220°
2026-04-26 19:54 54.35998 11.01229 18095 ft 352 kts 220°
2026-04-26 19:54 54.34005 10.98823 17672 ft 348 kts 220°
2026-04-26 19:54 54.32035 10.96451 17116 ft 345 kts 220°
2026-04-26 19:55 54.30074 10.94090 16487 ft 345 kts 220°
2026-04-26 19:55 54.28115 10.91735 15898 ft 343 kts 220°
2026-04-26 19:55 54.26190 10.89425 15383 ft 341 kts 220°
2026-04-26 19:55 54.24257 10.87107 14821 ft 340 kts 220°
2026-04-26 19:56 54.22321 10.84789 14292 ft 339 kts 220°
2026-04-26 19:56 54.20415 10.82513 14060 ft 328 kts 220°
2026-04-26 19:56 54.18561 10.80303 13705 ft 322 kts 220°
2026-04-26 19:56 54.16730 10.78119 13232 ft 321 kts 220°
2026-04-26 19:57 54.14905 10.75942 12801 ft 318 kts 220°
2026-04-26 19:57 54.13115 10.73812 12587 ft 309 kts 220°
2026-04-26 19:57 54.11365 10.71733 12301 ft 304 kts 220°
2026-04-26 19:57 54.09635 10.69677 11919 ft 303 kts 220°
2026-04-26 19:58 54.07929 10.67651 11553 ft 302 kts 220°
2026-04-26 19:58 54.06194 10.65590 11015 ft 307 kts 219°
2026-04-26 19:58 54.04432 10.63498 10536 ft 310 kts 219°
2026-04-26 19:58 54.02669 10.61412 10156 ft 308 kts 219°
2026-04-26 19:59 54.00911 10.59336 9763 ft 306 kts 219°
2026-04-26 19:59 53.99188 10.57306 9614 ft 296 kts 219°
2026-04-26 19:59 53.97513 10.55332 9368 ft 291 kts 219°
2026-04-26 19:59 53.95859 10.53383 9044 ft 289 kts 219°
2026-04-26 20:00 53.94233 10.51469 8735 ft 287 kts 219°
2026-04-26 20:00 53.92603 10.49552 8443 ft 285 kts 219°
2026-04-26 20:00 53.90978 10.47643 8158 ft 283 kts 218°
2026-04-26 20:00 53.89368 10.45756 7885 ft 280 kts 218°
2026-04-26 20:01 53.87792 10.43909 7826 ft 270 kts 218°
2026-04-26 20:01 53.86285 10.42147 7782 ft 256 kts 218°
2026-04-26 20:01 53.84849 10.40469 7683 ft 245 kts 219°
2026-04-26 20:01 53.83480 10.38870 7596 ft 234 kts 219°
2026-04-26 20:02 53.82131 10.37286 7173 ft 240 kts 219°
2026-04-26 20:02 53.80955 10.35331 6806 ft 235 kts 239°
2026-04-26 20:02 53.80052 10.33124 6314 ft 230 kts 236°
2026-04-26 20:02 53.79369 10.31692 5904 ft 231 kts 233°
2026-04-26 20:03 53.78015 10.28988 5349 ft 220 kts 232°
2026-04-26 20:03 53.77070 10.27106 5222 ft 201 kts 232°
2026-04-26 20:03 53.76206 10.25373 5105 ft 186 kts 232°
2026-04-26 20:03 53.75406 10.23764 4973 ft 174 kts 232°
2026-04-26 20:04 53.74637 10.22216 4677 ft 171 kts 232°
2026-04-26 20:04 53.73876 10.20683 4361 ft 170 kts 232°
2026-04-26 20:04 53.73116 10.19153 3938 ft 173 kts 231°
2026-04-26 20:04 53.72344 10.17600 3332 ft 176 kts 231°
2026-04-26 20:05 53.71540 10.16029 2772 ft 177 kts 230°
2026-04-26 20:05 53.70744 10.14496 2427 ft 166 kts 230°
2026-04-26 20:05 53.69982 10.13048 2406 ft 169 kts 231°
2026-04-26 20:05 53.69216 10.11463 1966 ft 172 kts 233°
2026-04-26 20:06 53.68506 10.09938 1738 ft 156 kts 233°
2026-04-26 20:06 53.67838 10.08577 1596 ft 146 kts 232°
2026-04-26 20:06 53.67167 10.07244 1398 ft 152 kts 233°
2026-04-26 20:06 53.66484 10.05865 1018 ft 151 kts 233°
2026-04-26 20:07 53.65836 10.04550 782 ft 146 kts 234°
2026-04-26 20:07 53.65209 10.03199 585 ft 144 kts 233°
2026-04-26 20:07 53.64573 10.01927 402 ft 143 kts 232°
2026-04-26 20:07 53.63941 10.00646 233 ft 142 kts 231°
2026-04-26 20:08 53.63304 9.99373 62 ft 138 kts 231°
2026-04-26 20:08 53.62781 9.98314 52 ft 89 kts 230°
2026-04-26 20:08 53.62539 9.97831 50 ft 23 kts 228°
2026-04-26 20:08 53.62438 9.97829 50 ft 16 kts 133°
2026-04-26 20:09 53.62433 9.98002 50 ft 13 kts 77°
2026-04-26 20:09 53.62453 9.98150 50 ft 13 kts 78°
2026-04-26 20:09 53.62471 9.98295 50 ft 13 kts 79°
2026-04-26 20:09 53.62491 9.98468 50 ft 18 kts 79°
2026-04-26 20:10 53.62518 9.98704 50 ft 24 kts 79°
2026-04-26 20:10 53.62552 9.99009 48 ft 28 kts 79°
2026-04-26 20:10 53.62589 9.99330 50 ft 27 kts 78°
2026-04-26 20:10 53.62615 9.99565 50 ft 12 kts 79°
2026-04-26 20:11 53.62631 9.99698 50 ft 11 kts 79°
2026-04-26 20:11 53.62664 9.99819 52 ft 12 kts 41°
2026-04-26 20:11 53.62733 9.99895 51 ft 12 kts 30°
2026-04-26 20:12 53.62865 10.00037 50 ft 11 kts 41°
2026-04-26 20:12 53.62927 10.00109 47 ft 11 kts 28°
2026-04-26 20:12 53.62992 10.00182 49 ft 13 kts 34°
2026-04-26 20:12 53.63064 10.00254 50 ft 8 kts 41°
2026-04-26 20:13 53.63073 10.00354 50 ft 11 kts 89°
2026-04-26 20:13 53.63071 10.00388 50 ft 0 kts 96°